map of RES home
Great Circle Mapper logo
RES - Airport
Location
City:  Resistencia, Argentina
ICAO / IATA:SARE / RES

Details
Type:Airport (Aerodrome, Airfield)
Use:Public/Civil
Latitude:2727'00"S (-27.449985)
Longitude:5903'22"W (-59.056124)
Datum:WGS 1984
Elevation:173 ft (53 m)
Variation:11.62W (WMM2015 magnetic declination)
-0.18 annual change
Runways:1
Longest:9088 × 147 ft (2770 × 45 m), paved

Time
Time Zone:UTC-3
Local Time:

Weather
METAR:SARE 032000Z 29002KT 8000 FEW030 BKN070 32/21 Q1009
TAF:SARE 031700Z 0318/0418 36010KT CAVOK TX30/0418Z TN19/0410Z
BECMG 04130415 36010KT 9999 3CU030 5AC090

Related Locations
Nearby:
Farthest:WNZ: 12441 mi / 20021 km
Wenzhou [Intl], Zhejiang, CN

Find:

   beyond  
but within

Other Information
Maps:
NOTAMs:
Links:
Sources:

  
flag of Argentina   

Sectional Chart

Flight Planning
at skyvector.com

Satellite Image

Google Maps Satellite view

 

Copyright © 2004-2015 Karl L. Swartz. All rights reserved.
The Great Circle Mapper name and logo are trademarks of the Great Circle Mapper.
All other trademarks mentioned herein belong to their respective owners.
Please see credits for attibutions and further copyright information.

  Follow gcmap on Facebook Follow gcmap on Twitter Follow gcmap on Google+

hCard Microformat

Geo Microformat